TimeMDT,TemperatureF,Dew PointF,Humidity,Sea Level PressureIn,VisibilityMPH,Wind Direction,Wind SpeedMPH,Gust SpeedMPH,PrecipitationIn,Events,Conditions,WindDirDegrees,DateUTC
12:56 AM,45.0,33.1,63,29.80,-9999.0,NNE,15.0,-,N/A,,Unknown,30,2013-10-02 06:56:00
1:56 AM,46.9,33.1,59,29.80,-9999.0,NE,12.7,-,N/A,,Unknown,40,2013-10-02 07:56:00
2:56 AM,48.0,33.1,56,29.79,-9999.0,NNE,15.0,-,N/A,,Unknown,30,2013-10-02 08:56:00
3:56 AM,48.9,32.0,52,29.80,-9999.0,North,11.5,-,N/A,,Unknown,10,2013-10-02 09:56:00
4:56 AM,50.0,30.9,48,29.81,-9999.0,NNE,11.5,-,N/A,,Unknown,20,2013-10-02 10:56:00
5:56 AM,45.0,32.0,60,29.85,-9999.0,NNW,12.7,-,N/A,,Unknown,330,2013-10-02 11:56:00
6:56 AM,45.0,30.9,58,29.89,-9999.0,NNW,21.9,28.8,N/A,,Unknown,330,2013-10-02 12:56:00
7:56 AM,45.0,30.0,56,29.94,-9999.0,NNW,20.7,-,N/A,,Unknown,330,2013-10-02 13:56:00
8:56 AM,50.0,30.9,48,29.96,-9999.0,NNW,25.3,32.2,N/A,,Unknown,330,2013-10-02 14:56:00
9:56 AM,55.0,34.0,45,29.97,-9999.0,NNW,27.6,33.4,N/A,,Unknown,330,2013-10-02 15:56:00
10:56 AM,57.9,33.1,39,29.98,-9999.0,NNW,21.9,-,N/A,,Unknown,330,2013-10-02 16:56:00
11:56 AM,59.0,32.0,36,29.98,-9999.0,NNW,18.4,-,N/A,,Unknown,340,2013-10-02 17:56:00
12:56 PM,61.0,32.0,34,29.97,-9999.0,North,17.3,21.9,N/A,,Unknown,360,2013-10-02 18:56:00
1:56 PM,63.0,32.0,31,29.95,-9999.0,NW,12.7,24.2,N/A,,Unknown,310,2013-10-02 19:56:00
2:56 PM,62.1,35.1,37,29.94,-9999.0,North,12.7,24.2,N/A,,Unknown,350,2013-10-02 20:56:00
3:56 PM,61.0,30.9,32,29.94,-9999.0,NNW,13.8,-,N/A,,Unknown,340,2013-10-02 21:56:00
4:56 PM,60.1,30.0,32,29.94,-9999.0,North,12.7,-,N/A,,Unknown,350,2013-10-02 22:56:00
5:56 PM,55.9,30.0,37,29.97,-9999.0,NNW,9.2,-,N/A,,Unknown,340,2013-10-02 23:56:00
6:56 PM,53.1,30.9,43,29.98,-9999.0,North,10.4,-,N/A,,Unknown,360,2013-10-03 00:56:00
7:56 PM,52.0,32.0,47,29.98,-9999.0,North,8.1,-,N/A,,Unknown,10,2013-10-03 01:56:00
8:56 PM,52.0,30.0,43,29.95,-9999.0,NNE,10.4,-,N/A,,Unknown,20,2013-10-03 02:56:00
9:56 PM,50.0,30.0,46,29.95,-9999.0,NNE,9.2,-,N/A,,Unknown,30,2013-10-03 03:56:00
10:56 PM,48.9,32.0,52,29.93,-9999.0,NE,9.2,-,N/A,,Unknown,40,2013-10-03 04:56:00
11:56 PM,48.9,33.1,54,29.94,-9999.0,North,6.9,-,N/A,,Unknown,10,2013-10-03 05:56:00